Weather History for KCNU - February, 2014

Change the Weather History Date:

Monday, February 24, 2014

  Actual Average Record
Temperature  
Mean Temperature 35 °F 40 °F  
Max Temperature 48 °F 51 °F 82 °F (1956)
Min Temperature 21 °F 30 °F 0 °F (1913)
Degree Days  
Heating Degree Days 30 25  
Month to date heating degree days 834 678  
Since 1 July heating degree days 3873 3477  
Cooling Degree Days 0 0  
Month to date cooling degree days 0 0  
Year to date cooling degree days 0 0  
Moisture  
Dew Point 17 °F    
Average Humidity 54    
Maximum Humidity 77    
Minimum Humidity 31    
Precipitation  
Precipitation 0.00 in 0.07 in 1.31 in (2001)
Month to date precipitation T 1.57  
Year to date precipitation 0.11 2.83  
Sea Level Pressure  
Sea Level Pressure 30.24 in    
Wind  
Wind Speed 9 mph (ENE)    
Max Wind Speed 16 mph    
Max Gust Speed 21 mph    
Visibility 10 miles    
Events      
T = Trace of Precipitation, MM = Missing Value Source: NWS Daily Summary

Daily Weather History Graph

Daily Weather History Graph

Search for Another Location

Airport or City:

Trip Planner

Search our weather history database for the weather conditions in past years. The results will help you decide how hot, cold, wet, or windy it might be!

Date:

Astronomy

Feb. 24, 2014 Rise Set
Actual Time 7:00 AM CST 6:10 PM CST
Civil Twilight 6:33 AM CST 6:37 PM CST
Nautical Twilight 6:03 AM CST 7:07 PM CST
Astronomical Twilight 5:32 AM CST 7:37 PM CST
Moon 2:56 AM CST (2/24) 1:16 PM CST (2/24)
Length of Visible Light 12h 03m
Length of Day
11h 10m
Waning Crescent, 28% of the Moon is Illuminated
Feb 24
Waning Crescent
Mar 1
New
Mar 8
First Quarter
Mar 16
Full
Mar 23
Last Quarter

Hourly Weather History & Observations

Time (CST) Temp. Windchill Dew Point Humidity Pressure Visibility Wind Dir Wind Speed Gust Speed Precip Events Conditions
12:52 AM 26.1 °F 17.6 °F 16.0 °F 66% 30.33 in 10.0 mi NE 8.1 mph - N/A   Clear
1:52 AM 25.0 °F 16.3 °F 16.0 °F 69% 30.31 in 10.0 mi NE 8.1 mph - N/A   Clear
2:52 AM 25.0 °F 16.3 °F 16.0 °F 69% 30.31 in 10.0 mi NE 8.1 mph - N/A   Clear
3:52 AM 24.1 °F 16.0 °F 16.0 °F 71% 30.30 in 10.0 mi NE 6.9 mph - N/A   Clear
4:52 AM 21.0 °F 13.4 °F 15.1 °F 78% 30.33 in 10.0 mi North 5.8 mph - N/A   Clear
5:52 AM 21.9 °F 13.4 °F 15.1 °F 75% 30.32 in 10.0 mi NE 6.9 mph - N/A   Clear
6:52 AM 21.9 °F 12.5 °F 15.1 °F 75% 30.32 in 10.0 mi NE 8.1 mph - N/A   Clear
7:52 AM 24.1 °F 14.4 °F 16.0 °F 71% 30.34 in 10.0 mi ENE 9.2 mph - N/A   Clear
8:52 AM 28.9 °F 18.6 °F 17.1 °F 61% 30.34 in 10.0 mi East 12.7 mph - N/A   Clear
9:52 AM 33.1 °F 24.4 °F 16.0 °F 50% 30.33 in 10.0 mi East 11.5 mph - N/A   Clear
10:52 AM 36.0 °F 26.7 °F 14.0 °F 41% 30.31 in 10.0 mi East 15.0 mph - N/A   Clear
11:52 AM 39.0 °F 31.4 °F 14.0 °F 36% 30.29 in 10.0 mi East 12.7 mph 18.4 mph N/A   Mostly Cloudy
12:52 PM 41.0 °F 34.3 °F 15.1 °F 35% 30.24 in 10.0 mi ESE 11.5 mph - N/A   Overcast
1:52 PM 45.0 °F 40.6 °F 16.0 °F 31% 30.20 in 10.0 mi East 8.1 mph - N/A   Clear
2:52 PM 46.9 °F - 18.0 °F 32% 30.16 in 10.0 mi ESE 9.2 mph - N/A   Clear
3:52 PM 46.9 °F - 19.9 °F 34% 30.14 in 10.0 mi SSE 5.8 mph - N/A   Clear
4:52 PM 46.9 °F - 21.0 °F 36% 30.11 in 10.0 mi SE 8.1 mph - N/A   Overcast
5:52 PM 45.0 °F 41.2 °F 19.9 °F 37% 30.11 in 10.0 mi ESE 6.9 mph - N/A   Overcast
6:52 PM 44.1 °F 41.5 °F 21.9 °F 42% 30.12 in 10.0 mi ESE 4.6 mph - N/A   Overcast
7:52 PM 43.0 °F 40.3 °F 21.0 °F 42% 30.13 in 10.0 mi East 4.6 mph - N/A   Overcast
8:52 PM 41.0 °F 36.4 °F 19.9 °F 43% 30.16 in 10.0 mi NNE 6.9 mph - N/A   Overcast
9:52 PM 35.1 °F 26.9 °F 17.1 °F 48% 30.19 in 10.0 mi NNE 11.5 mph - N/A   Overcast
10:52 PM 32.0 °F 23.6 °F 17.1 °F 54% 30.22 in 10.0 mi NNE 10.4 mph - N/A   Clear
11:52 PM 30.9 °F 23.5 °F 16.0 °F 54% 30.24 in 10.0 mi NNE 8.1 mph - N/A   Clear